Time,TemperatureF,DewpointF,PressureIn,WindDirection,WindDirectionDegrees,WindSpeedMPH,WindSpeedGustMPH,Humidity,HourlyPrecipIn,Conditions,Clouds,dailyrainin,SoftwareType,DateUTC
2013-06-16 00:00:00,66.6,53.2,29.78,SSW,195,0.0,0.0,62,0.00,,---,0.00,VWS V14.00,2013-06-16 07:00:00,
2013-06-16 00:03:00,66.6,53.2,29.78,SSW,195,0.0,0.0,62,0.00,,---,0.00,VWS V14.00,2013-06-16 07:03:00,
2013-06-16 00:08:00,67.2,53.8,29.78,SSW,195,0.0,0.0,62,0.00,,---,0.00,VWS V14.00,2013-06-16 07:08:00,
2013-06-16 00:13:00,67.5,53.1,29.78,SSW,195,0.0,0.0,60,0.00,,---,0.00,VWS V14.00,2013-06-16 07:13:00,
2013-06-16 00:18:00,67.9,53.1,29.78,SSW,195,0.0,0.0,59,0.00,,---,0.00,VWS V14.00,2013-06-16 07:18:00,
2013-06-16 00:23:00,68.3,53.0,29.77,SSW,195,0.0,0.0,58,0.00,,---,0.00,VWS V14.00,2013-06-16 07:23:00,
2013-06-16 00:28:00,68.5,53.2,29.78,SSE,167,0.0,8.0,58,0.00,,---,0.00,VWS V14.00,2013-06-16 07:28:00,
2013-06-16 00:30:00,68.7,53.3,29.78,SSE,167,0.0,8.0,58,0.00,,---,0.00,VWS V14.00,2013-06-16 07:30:00,
2013-06-16 00:33:00,68.7,54.3,29.78,SSE,167,0.0,0.0,60,0.00,,---,0.00,VWS V14.00,2013-06-16 07:33:00,
2013-06-16 00:38:00,68.0,55.0,29.78,SSE,167,0.0,0.0,63,0.00,,---,0.00,VWS V14.00,2013-06-16 07:38:00,
2013-06-16 00:43:00,67.0,54.9,29.78,SSE,167,0.0,0.0,65,0.00,,---,0.00,VWS V14.00,2013-06-16 07:43:00,
2013-06-16 00:48:00,66.1,54.4,29.78,SSE,167,0.0,0.0,66,0.00,,---,0.00,VWS V14.00,2013-06-16 07:48:00,
2013-06-16 00:53:00,65.7,54.0,29.78,SSE,167,0.0,0.0,66,0.00,,---,0.00,VWS V14.00,2013-06-16 07:53:00,
2013-06-16 00:58:00,65.5,54.3,29.78,SSE,167,0.0,0.0,67,0.00,,---,0.00,VWS V14.00,2013-06-16 07:58:00,
2013-06-16 01:00:00,65.4,53.8,29.78,SSE,167,0.0,0.0,66,0.00,,---,0.00,VWS V14.00,2013-06-16 08:00:00,
2013-06-16 01:03:00,65.3,54.1,29.78,SSE,167,0.0,0.0,67,0.00,,---,0.00,VWS V14.00,2013-06-16 08:03:00,
2013-06-16 01:09:00,65.4,53.8,29.77,SSE,167,0.0,0.0,66,0.00,,---,0.00,VWS V14.00,2013-06-16 08:09:00,
2013-06-16 01:14:00,65.7,53.6,29.77,SSE,167,0.0,0.0,65,0.00,,---,0.00,VWS V14.00,2013-06-16 08:14:00,
2013-06-16 01:18:00,66.1,53.6,29.78,SSE,167,0.0,0.0,64,0.00,,---,0.00,VWS V14.00,2013-06-16 08:18:00,
2013-06-16 01:23:00,66.4,54.3,29.77,SSE,167,0.0,0.0,65,0.00,,---,0.00,VWS V14.00,2013-06-16 08:23:00,
2013-06-16 01:28:00,66.3,53.8,29.77,SSE,167,0.0,0.0,64,0.00,,---,0.00,VWS V14.00,2013-06-16 08:28:00,
2013-06-16 01:30:00,66.1,53.2,29.77,SSE,167,0.0,2.0,63,0.00,,---,0.00,VWS V14.00,2013-06-16 08:30:00,
2013-06-16 01:33:00,65.9,53.4,29.78,SSE,167,0.0,0.0,64,0.00,,---,0.00,VWS V14.00,2013-06-16 08:33:00,
2013-06-16 01:38:00,65.6,53.1,29.77,SSE,167,0.0,0.0,64,0.00,,---,0.00,VWS V14.00,2013-06-16 08:38:00,
2013-06-16 01:43:00,65.3,53.2,29.77,SSE,167,0.0,0.0,65,0.00,,---,0.00,VWS V14.00,2013-06-16 08:43:00,
2013-06-16 01:48:00,64.8,53.2,29.77,SSE,167,0.0,0.0,66,0.00,,---,0.00,VWS V14.00,2013-06-16 08:48:00,
2013-06-16 01:53:00,64.5,52.9,29.77,SSE,167,0.0,0.0,66,0.00,,---,0.00,VWS V14.00,2013-06-16 08:53:00,
2013-06-16 01:58:00,64.4,53.2,29.77,SSE,167,0.0,0.0,67,0.00,,---,0.00,VWS V14.00,2013-06-16 08:58:00,
2013-06-16 02:00:00,64.5,52.9,29.77,SSE,167,0.0,0.0,66,0.00,,---,0.00,VWS V14.00,2013-06-16 09:00:00,
2013-06-16 02:03:00,64.4,52.8,29.77,SSE,167,0.0,0.0,66,0.00,,---,0.00,VWS V14.00,2013-06-16 09:03:00,
2013-06-16 02:09:00,64.3,53.5,29.77,SSE,167,0.0,0.0,68,0.00,,---,0.00,VWS V14.00,2013-06-16 09:09:00,
2013-06-16 02:14:00,63.8,53.0,29.77,SSE,167,0.0,0.0,68,0.00,,---,0.00,VWS V14.00,2013-06-16 09:14:00,
2013-06-16 02:19:00,63.4,53.5,29.77,SSE,167,0.0,0.0,70,0.00,,---,0.00,VWS V14.00,2013-06-16 09:19:00,
2013-06-16 02:24:00,63.1,53.2,29.77,SSE,167,0.0,0.0,70,0.00,,---,0.00,VWS V14.00,2013-06-16 09:24:00,
2013-06-16 02:29:00,63.1,53.6,29.77,SSE,167,0.0,0.0,71,0.00,,---,0.00,VWS V14.00,2013-06-16 09:29:00,
2013-06-16 02:30:00,62.9,53.4,29.77,SSE,167,0.0,0.0,71,0.00,,---,0.00,VWS V14.00,2013-06-16 09:30:00,
2013-06-16 02:34:00,62.8,53.7,29.77,SSE,167,0.0,0.0,72,0.00,,---,0.00,VWS V14.00,2013-06-16 09:34:00,
2013-06-16 02:39:00,62.3,53.5,29.77,SSE,167,0.0,0.0,73,0.00,,---,0.00,VWS V14.00,2013-06-16 09:39:00,
2013-06-16 02:44:00,61.9,53.2,29.77,SSE,167,0.0,0.0,73,0.00,,---,0.00,VWS V14.00,2013-06-16 09:44:00,
2013-06-16 02:49:00,61.6,52.9,29.77,SSE,167,0.0,0.0,73,0.00,,---,0.00,VWS V14.00,2013-06-16 09:49:00,
2013-06-16 02:54:00,61.6,53.2,29.77,SSE,167,0.0,0.0,74,0.00,,---,0.00,VWS V14.00,2013-06-16 09:54:00,
2013-06-16 02:59:00,61.7,53.3,29.77,SSE,167,0.0,0.0,74,0.00,,---,0.00,VWS V14.00,2013-06-16 09:59:00,
2013-06-16 03:00:00,61.7,53.3,29.77,SSE,167,0.0,0.0,74,0.00,,---,0.00,VWS V14.00,2013-06-16 10:00:00,
2013-06-16 03:04:00,61.7,53.3,29.77,SSE,167,0.0,0.0,74,0.00,,---,0.00,VWS V14.00,2013-06-16 10:04:00,
2013-06-16 03:09:00,61.8,53.4,29.77,SSE,167,0.0,0.0,74,0.00,,---,0.00,VWS V14.00,2013-06-16 10:09:00,
2013-06-16 03:14:00,62.0,53.3,29.77,SSE,167,0.0,0.0,73,0.00,,---,0.00,VWS V14.00,2013-06-16 10:14:00,
2013-06-16 03:19:00,62.3,53.2,29.77,SSE,167,0.0,0.0,72,0.00,,---,0.00,VWS V14.00,2013-06-16 10:19:00,
2013-06-16 03:30:00,62.1,53.0,29.78,North,0,0.0,0.0,72,0.00,,---,0.00,VWS V14.00,2013-06-16 10:30:00,
2013-06-16 04:00:00,62.4,54.0,29.78,North,0,0.0,0.0,74,0.00,,---,0.00,VWS V14.00,2013-06-16 11:00:00,
2013-06-16 04:30:00,62.1,51.4,29.78,SSE,158,0.0,1.0,68,0.00,,---,0.00,VWS V14.00,2013-06-16 11:30:00,
2013-06-16 05:00:00,64.0,51.2,29.79,SSE,158,0.0,1.0,63,0.00,,---,0.00,VWS V14.00,2013-06-16 12:00:00,
2013-06-16 05:30:00,65.7,52.3,29.79,SSE,158,0.0,0.0,62,0.00,,---,0.00,VWS V14.00,2013-06-16 12:30:00,
2013-06-16 06:00:00,66.2,53.7,29.80,SSE,158,0.0,0.0,64,0.00,,---,0.00,VWS V14.00,2013-06-16 13:00:00,
2013-06-16 06:30:00,67.7,54.7,29.81,SSE,158,0.0,0.0,63,0.00,,---,0.00,VWS V14.00,2013-06-16 13:30:00,
2013-06-16 07:00:00,70.6,55.6,29.81,SSE,158,0.0,0.0,59,0.00,,---,0.00,VWS V14.00,2013-06-16 14:00:00,
2013-06-16 07:18:00,74.2,55.5,29.81,SE,130,0.0,0.0,52,0.00,,---,0.00,VWS V14.00,2013-06-16 14:18:00,
2013-06-16 07:23:00,74.9,55.6,29.81,SE,130,0.0,0.0,51,0.00,,---,0.00,VWS V14.00,2013-06-16 14:23:00,
2013-06-16 07:28:00,75.3,56.5,29.81,SE,130,0.0,0.0,52,0.00,,---,0.00,VWS V14.00,2013-06-16 14:28:00,
2013-06-16 07:30:00,75.6,56.8,29.82,SE,130,0.0,0.0,52,0.00,,---,0.00,VWS V14.00,2013-06-16 14:30:00,
2013-06-16 07:33:00,75.7,56.8,29.82,SE,130,0.0,0.0,52,0.00,,---,0.00,VWS V14.00,2013-06-16 14:33:00,
2013-06-16 07:38:00,76.1,54.4,29.82,SE,130,0.0,0.0,47,0.00,,---,0.00,VWS V14.00,2013-06-16 14:38:00,
2013-06-16 07:43:00,76.6,53.7,29.82,SE,130,0.0,0.0,45,0.00,,---,0.00,VWS V14.00,2013-06-16 14:43:00,
2013-06-16 07:48:00,76.7,53.8,29.82,SE,130,0.0,0.0,45,0.00,,---,0.00,VWS V14.00,2013-06-16 14:48:00,
2013-06-16 07:53:00,76.6,53.1,29.82,SE,130,0.0,0.0,44,0.00,,---,0.00,VWS V14.00,2013-06-16 14:53:00,
2013-06-16 07:58:00,76.6,53.7,29.82,SE,130,0.0,0.0,45,0.00,,---,0.00,VWS V14.00,2013-06-16 14:58:00,
2013-06-16 08:00:00,76.6,54.9,29.82,SE,130,0.0,0.0,47,0.00,,---,0.00,VWS V14.00,2013-06-16 15:00:00,
2013-06-16 08:03:00,76.7,53.2,29.82,South,185,0.0,0.0,44,0.00,,---,0.00,VWS V14.00,2013-06-16 15:03:00,
2013-06-16 08:08:00,77.0,53.4,29.82,South,185,0.0,0.0,44,0.00,,---,0.00,VWS V14.00,2013-06-16 15:08:00,
2013-06-16 08:13:00,77.3,53.7,29.83,South,185,0.0,0.0,44,0.00,,---,0.00,VWS V14.00,2013-06-16 15:13:00,
2013-06-16 08:18:00,77.6,54.0,29.83,South,185,0.0,0.0,44,0.00,,---,0.00,VWS V14.00,2013-06-16 15:18:00,
2013-06-16 08:23:00,78.0,53.7,29.83,South,185,0.0,1.0,43,0.00,,---,0.00,VWS V14.00,2013-06-16 15:23:00,
2013-06-16 08:28:00,78.4,54.7,29.83,South,185,0.0,1.0,44,0.00,,---,0.00,VWS V14.00,2013-06-16 15:28:00,
2013-06-16 08:30:00,78.8,57.5,29.83,South,185,0.0,3.0,48,0.00,,---,0.00,VWS V14.00,2013-06-16 15:30:00,
2013-06-16 08:33:00,78.9,56.4,29.83,South,185,0.0,0.0,46,0.00,,---,0.00,VWS V14.00,2013-06-16 15:33:00,
2013-06-16 08:38:00,79.2,56.7,29.83,South,185,0.0,1.0,46,0.00,,---,0.00,VWS V14.00,2013-06-16 15:38:00,
2013-06-16 08:44:00,79.6,54.5,29.83,South,185,0.0,1.0,42,0.00,,---,0.00,VWS V14.00,2013-06-16 15:44:00,
2013-06-16 08:49:00,80.4,55.2,29.83,South,185,0.0,1.0,42,0.00,,---,0.00,VWS V14.00,2013-06-16 15:49:00,
2013-06-16 08:54:00,80.9,55.7,29.83,South,185,0.0,1.0,42,0.00,,---,0.00,VWS V14.00,2013-06-16 15:54:00,
2013-06-16 08:59:00,81.2,56.0,29.83,SSW,197,4.0,6.0,42,0.00,,---,0.00,VWS V14.00,2013-06-16 15:59:00,
2013-06-16 09:00:00,81.3,56.7,29.83,SSW,202,0.0,6.0,43,0.00,,---,0.00,VWS V14.00,2013-06-16 16:00:00,
2013-06-16 09:04:00,81.3,56.0,29.83,SSW,204,1.0,2.0,42,0.00,,---,0.00,VWS V14.00,2013-06-16 16:04:00,
2013-06-16 09:09:00,81.4,56.1,29.83,SSW,205,0.0,4.0,42,0.00,,---,0.00,VWS V14.00,2013-06-16 16:09:00,
2013-06-16 09:14:00,81.6,56.3,29.83,SW,223,0.0,4.0,42,0.00,,---,0.00,VWS V14.00,2013-06-16 16:14:00,
2013-06-16 09:19:00,81.7,55.0,29.83,WSW,245,0.0,6.0,40,0.00,,---,0.00,VWS V14.00,2013-06-16 16:19:00,
2013-06-16 09:24:00,82.0,56.0,29.83,WSW,244,0.0,6.0,41,0.00,,---,0.00,VWS V14.00,2013-06-16 16:24:00,
2013-06-16 09:29:00,82.4,55.0,29.83,WSW,238,0.0,6.0,39,0.00,,---,0.00,VWS V14.00,2013-06-16 16:29:00,
2013-06-16 09:30:00,82.6,55.2,29.83,WSW,238,0.0,6.0,39,0.00,,---,0.00,VWS V14.00,2013-06-16 16:30:00,
2013-06-16 09:34:00,82.7,54.5,29.83,WSW,238,0.0,0.0,38,0.00,,---,0.00,VWS V14.00,2013-06-16 16:34:00,
2013-06-16 09:39:00,83.1,54.9,29.83,WSW,242,0.0,0.0,38,0.00,,---,0.00,VWS V14.00,2013-06-16 16:39:00,
2013-06-16 09:44:00,83.1,56.3,29.83,WSW,242,0.0,0.0,40,0.00,,---,0.00,VWS V14.00,2013-06-16 16:44:00,
2013-06-16 09:49:00,83.4,55.2,29.83,WSW,242,0.0,2.0,38,0.00,,---,0.00,VWS V14.00,2013-06-16 16:49:00,
2013-06-16 09:54:00,83.5,56.0,29.83,WSW,242,0.0,2.0,39,0.00,,---,0.00,VWS V14.00,2013-06-16 16:54:00,
2013-06-16 09:59:00,83.7,56.1,29.83,WSW,242,0.0,2.0,39,0.00,,---,0.00,VWS V14.00,2013-06-16 16:59:00,
2013-06-16 10:00:00,84.1,55.0,29.83,SSW,205,0.0,5.0,37,0.00,,---,0.00,VWS V14.00,2013-06-16 17:00:00,
2013-06-16 10:04:00,84.4,54.6,29.83,East,90,0.0,3.0,36,0.00,,---,0.00,VWS V14.00,2013-06-16 17:04:00,
2013-06-16 10:09:00,84.5,54.6,29.83,East,90,0.0,3.0,36,0.00,,---,0.00,VWS V14.00,2013-06-16 17:09:00,
2013-06-16 10:14:00,84.7,54.0,29.83,ESE,107,0.0,4.0,35,0.00,,---,0.00,VWS V14.00,2013-06-16 17:14:00,
2013-06-16 10:19:00,85.3,54.6,29.83,ESE,108,2.0,4.0,35,0.00,,---,0.00,VWS V14.00,2013-06-16 17:19:00,
2013-06-16 10:24:00,85.9,51.8,29.83,SE,143,0.0,4.0,31,0.00,,---,0.00,VWS V14.00,2013-06-16 17:24:00,
2013-06-16 10:29:00,86.4,52.2,29.83,SSE,154,5.0,6.0,31,0.00,,---,0.00,VWS V14.00,2013-06-16 17:29:00,
2013-06-16 10:30:00,86.7,52.5,29.83,South,173,3.0,7.0,31,0.00,,---,0.00,VWS V14.00,2013-06-16 17:30:00,
2013-06-16 10:34:00,86.8,52.6,29.83,South,175,0.0,3.0,31,0.00,,---,0.00,VWS V14.00,2013-06-16 17:34:00,
2013-06-16 10:39:00,86.7,52.5,29.83,SSW,207,2.0,7.0,31,0.00,,---,0.00,VWS V14.00,2013-06-16 17:39:00,
2013-06-16 10:44:00,86.6,53.3,29.83,South,182,3.0,7.0,32,0.00,,---,0.00,VWS V14.00,2013-06-16 17:44:00,
2013-06-16 10:49:00,86.4,53.9,29.83,South,188,5.0,10.0,33,0.00,,---,0.00,VWS V14.00,2013-06-16 17:49:00,
2013-06-16 10:54:00,85.9,54.3,29.83,SW,227,0.0,10.0,34,0.00,,---,0.00,VWS V14.00,2013-06-16 17:54:00,
2013-06-16 10:59:00,86.2,52.0,29.83,SSE,156,0.0,10.0,31,0.00,,---,0.00,VWS V14.00,2013-06-16 17:59:00,
2013-06-16 11:00:00,86.4,53.9,29.83,WSW,239,2.0,10.0,33,0.00,,---,0.00,VWS V14.00,2013-06-16 18:00:00,
2013-06-16 11:04:00,86.4,53.9,29.82,SSW,206,0.0,7.0,33,0.00,,---,0.00,VWS V14.00,2013-06-16 18:04:00,
2013-06-16 11:09:00,86.3,53.0,29.82,SW,225,0.0,7.0,32,0.00,,---,0.00,VWS V14.00,2013-06-16 18:09:00,
2013-06-16 11:14:00,86.2,52.9,29.82,SW,228,0.0,7.0,32,0.00,,---,0.00,VWS V14.00,2013-06-16 18:14:00,
2013-06-16 11:19:00,86.6,53.3,29.82,SW,228,0.0,10.0,32,0.00,,---,0.00,VWS V14.00,2013-06-16 18:19:00,
2013-06-16 11:24:00,86.7,54.2,29.82,ENE,75,0.0,15.0,33,0.00,,---,0.00,VWS V14.00,2013-06-16 18:24:00,
2013-06-16 11:29:00,86.9,54.4,29.82,South,171,0.0,15.0,33,0.00,,---,0.00,VWS V14.00,2013-06-16 18:29:00,
2013-06-16 11:30:00,87.0,53.6,29.82,South,191,0.0,15.0,32,0.00,,---,0.00,VWS V14.00,2013-06-16 18:30:00,
2013-06-16 11:34:00,86.9,54.4,29.82,SSW,192,0.0,1.0,33,0.00,,---,0.00,VWS V14.00,2013-06-16 18:34:00,
2013-06-16 11:39:00,87.0,53.6,29.82,SW,215,6.0,8.0,32,0.00,,---,0.00,VWS V14.00,2013-06-16 18:39:00,
2013-06-16 11:44:00,86.5,53.2,29.82,SW,215,0.0,8.0,32,0.00,,---,0.00,VWS V14.00,2013-06-16 18:44:00,
2013-06-16 11:49:00,86.3,53.8,29.82,SW,234,0.0,8.0,33,0.00,,---,0.00,VWS V14.00,2013-06-16 18:49:00,
2013-06-16 11:54:00,86.9,54.4,29.81,SE,142,3.0,13.0,33,0.00,,---,0.00,VWS V14.00,2013-06-16 18:54:00,
2013-06-16 11:59:00,87.6,54.1,29.81,SSE,150,7.0,13.0,32,0.00,,---,0.00,VWS V14.00,2013-06-16 18:59:00,
2013-06-16 12:00:00,87.7,54.2,29.81,SSE,157,1.0,13.0,32,0.00,,---,0.00,VWS V14.00,2013-06-16 19:00:00,
2013-06-16 12:04:00,87.7,54.2,29.81,SSE,150,0.0,6.0,32,0.00,,---,0.00,VWS V14.00,2013-06-16 19:04:00,
2013-06-16 12:09:00,87.4,54.0,29.81,SSE,165,2.0,6.0,32,0.00,,---,0.00,VWS V14.00,2013-06-16 19:09:00,
2013-06-16 12:14:00,87.5,54.0,29.81,WSW,238,1.0,6.0,32,0.00,,---,0.00,VWS V14.00,2013-06-16 19:14:00,
2013-06-16 12:19:00,88.3,54.7,29.81,South,169,2.0,12.0,32,0.00,,---,0.00,VWS V14.00,2013-06-16 19:19:00,
2013-06-16 12:24:00,88.7,54.2,29.81,SE,146,3.0,15.0,31,0.00,,---,0.00,VWS V14.00,2013-06-16 19:24:00,
2013-06-16 12:29:00,88.6,54.1,29.81,SSE,151,0.0,15.0,31,0.00,,---,0.00,VWS V14.00,2013-06-16 19:29:00,
2013-06-16 12:30:00,88.6,53.2,29.81,East,94,0.0,15.0,30,0.00,,---,0.00,VWS V14.00,2013-06-16 19:30:00,
2013-06-16 12:34:00,88.3,53.9,29.80,ENE,59,0.0,1.0,31,0.00,,---,0.00,VWS V14.00,2013-06-16 19:34:00,
2013-06-16 12:39:00,88.5,54.0,29.80,ENE,66,0.0,2.0,31,0.00,,---,0.00,VWS V14.00,2013-06-16 19:39:00,
2013-06-16 12:44:00,88.5,54.0,29.80,ESE,115,0.0,10.0,31,0.00,,---,0.00,VWS V14.00,2013-06-16 19:44:00,
2013-06-16 12:49:00,88.3,53.9,29.80,ESE,117,3.0,10.0,31,0.00,,---,0.00,VWS V14.00,2013-06-16 19:49:00,
2013-06-16 12:54:00,88.1,53.7,29.80,ESE,115,0.0,10.0,31,0.00,,---,0.00,VWS V14.00,2013-06-16 19:54:00,
2013-06-16 12:59:00,87.9,52.6,29.80,South,190,3.0,11.0,30,0.00,,---,0.00,VWS V14.00,2013-06-16 19:59:00,
2013-06-16 13:00:00,88.0,52.7,29.80,SE,141,7.0,11.0,30,0.00,,---,0.00,VWS V14.00,2013-06-16 20:00:00,
2013-06-16 13:04:00,88.6,53.2,29.79,SSW,204,2.0,14.0,30,0.00,,---,0.00,VWS V14.00,2013-06-16 20:04:00,
2013-06-16 13:09:00,89.3,53.8,29.79,South,171,0.0,14.0,30,0.00,,---,0.00,VWS V14.00,2013-06-16 20:09:00,
2013-06-16 13:15:00,90.0,52.5,29.79,SSE,166,5.0,14.0,28,0.00,,---,0.00,VWS V14.00,2013-06-16 20:15:00,
2013-06-16 13:20:00,90.2,53.7,29.78,SE,129,0.0,14.0,29,0.00,,---,0.00,VWS V14.00,2013-06-16 20:20:00,
2013-06-16 13:25:00,90.0,53.5,29.78,ESE,115,0.0,14.0,29,0.00,,---,0.00,VWS V14.00,2013-06-16 20:25:00,
2013-06-16 13:30:00,89.6,52.2,29.78,South,175,0.0,14.0,28,0.00,,---,0.00,VWS V14.00,2013-06-16 20:30:00,
2013-06-16 13:35:00,89.1,52.7,29.78,North,5,0.0,4.0,29,0.00,,---,0.00,VWS V14.00,2013-06-16 20:35:00,
2013-06-16 13:40:00,89.6,53.2,29.78,SSE,150,2.0,10.0,29,0.00,,---,0.00,VWS V14.00,2013-06-16 20:40:00,
2013-06-16 13:45:00,90.2,53.7,29.77,SE,129,0.0,10.0,29,0.00,,---,0.00,VWS V14.00,2013-06-16 20:45:00,
2013-06-16 13:50:00,90.7,53.2,29.78,SSW,210,6.0,10.0,28,0.00,,---,0.00,VWS V14.00,2013-06-16 20:50:00,
2013-06-16 13:55:00,90.8,53.2,29.77,SSE,151,3.0,11.0,28,0.00,,---,0.00,VWS V14.00,2013-06-16 20:55:00,
2013-06-16 14:00:00,90.9,53.3,29.76,ESE,119,4.0,11.0,28,0.00,,---,0.00,VWS V14.00,2013-06-16 21:00:00,
2013-06-16 14:05:00,91.5,52.8,29.76,SE,133,0.0,6.0,27,0.00,,---,0.00,VWS V14.00,2013-06-16 21:05:00,
2013-06-16 14:10:00,91.9,53.2,29.76,SE,140,3.0,13.0,27,0.00,,---,0.00,VWS V14.00,2013-06-16 21:10:00,
2013-06-16 14:15:00,92.5,53.7,29.76,SSE,147,7.0,13.0,27,0.00,,---,0.00,VWS V14.00,2013-06-16 21:15:00,
2013-06-16 14:20:00,92.6,53.8,29.76,South,175,5.0,13.0,27,0.00,,---,0.00,VWS V14.00,2013-06-16 21:20:00,
2013-06-16 14:25:00,92.3,53.5,29.76,SSW,198,0.0,13.0,27,0.00,,---,0.00,VWS V14.00,2013-06-16 21:25:00,
2013-06-16 14:30:00,91.7,53.0,29.76,SSE,168,12.0,19.0,27,0.00,,---,0.00,VWS V14.00,2013-06-16 21:30:00,
2013-06-16 14:35:00,91.1,53.5,29.75,SSW,206,0.0,2.0,28,0.00,,---,0.00,VWS V14.00,2013-06-16 21:35:00,
2013-06-16 14:40:00,91.1,53.5,29.75,SSW,211,0.0,15.0,28,0.00,,---,0.00,VWS V14.00,2013-06-16 21:40:00,
2013-06-16 14:45:00,91.5,53.8,29.75,South,187,3.0,15.0,28,0.00,,---,0.00,VWS V14.00,2013-06-16 21:45:00,
2013-06-16 14:50:00,91.4,52.8,29.75,SW,234,5.0,16.0,27,0.00,,---,0.00,VWS V14.00,2013-06-16 21:50:00,
2013-06-16 14:55:00,91.6,52.9,29.74,West,262,2.0,16.0,27,0.00,,---,0.00,VWS V14.00,2013-06-16 21:55:00,
2013-06-16 15:00:00,91.9,53.2,29.74,West,260,13.0,16.0,27,0.00,,---,0.00,VWS V14.00,2013-06-16 22:00:00,
2013-06-16 15:05:00,92.0,53.3,29.75,West,263,6.0,13.0,27,0.00,,---,0.00,VWS V14.00,2013-06-16 22:05:00,
2013-06-16 15:10:00,92.2,53.4,29.74,WSW,240,6.0,15.0,27,0.00,,---,0.00,VWS V14.00,2013-06-16 22:10:00,
2013-06-16 15:15:00,91.6,52.9,29.75,SW,225,4.0,15.0,27,0.00,,---,0.00,VWS V14.00,2013-06-16 22:15:00,
2013-06-16 15:20:00,91.1,52.5,29.75,West,259,6.0,15.0,27,0.00,,---,0.00,VWS V14.00,2013-06-16 22:20:00,
2013-06-16 15:25:00,91.3,52.7,29.75,SSW,211,0.0,15.0,27,0.00,,---,0.00,VWS V14.00,2013-06-16 22:25:00,
2013-06-16 15:30:00,91.7,53.0,29.74,SW,217,1.0,15.0,27,0.00,,---,0.00,VWS V14.00,2013-06-16 22:30:00,
2013-06-16 15:35:00,91.8,52.1,29.74,WSW,243,13.0,17.0,26,0.00,,---,0.00,VWS V14.00,2013-06-16 22:35:00,
2013-06-16 15:40:00,92.1,52.3,29.74,SW,220,7.0,17.0,26,0.00,,---,0.00,VWS V14.00,2013-06-16 22:40:00,
2013-06-16 15:45:00,92.0,52.2,29.74,SW,224,0.0,17.0,26,0.00,,---,0.00,VWS V14.00,2013-06-16 22:45:00,
2013-06-16 15:50:00,91.8,52.1,29.73,SW,234,3.0,17.0,26,0.00,,---,0.00,VWS V14.00,2013-06-16 22:50:00,
2013-06-16 15:55:00,92.1,51.3,29.73,SSW,211,0.0,17.0,25,0.00,,---,0.00,VWS V14.00,2013-06-16 22:55:00,
2013-06-16 16:00:00,92.2,51.3,29.73,SW,228,6.0,17.0,25,0.00,,---,0.00,VWS V14.00,2013-06-16 23:00:00,
2013-06-16 16:05:00,91.7,49.8,29.73,SE,136,3.0,13.0,24,0.00,,---,0.00,VWS V14.00,2013-06-16 23:05:00,
2013-06-16 16:10:00,91.6,49.7,29.73,SSW,205,0.0,17.0,24,0.00,,---,0.00,VWS V14.00,2013-06-16 23:10:00,
2013-06-16 16:15:00,92.4,51.5,29.73,West,265,16.0,17.0,25,0.00,,---,0.00,VWS V14.00,2013-06-16 23:15:00,
2013-06-16 16:21:00,92.8,50.7,29.73,West,274,13.0,18.0,24,0.00,,---,0.00,VWS V14.00,2013-06-16 23:21:00,
2013-06-16 16:26:00,92.8,51.8,29.72,WSW,251,15.0,18.0,25,0.00,,---,0.00,VWS V14.00,2013-06-16 23:26:00,
2013-06-16 16:30:00,92.9,50.8,29.72,WSW,245,4.0,18.0,24,0.00,,---,0.00,VWS V14.00,2013-06-16 23:30:00,
2013-06-16 16:31:00,92.9,51.9,29.72,WSW,237,9.0,18.0,25,0.00,,---,0.00,VWS V14.00,2013-06-16 23:31:00,
2013-06-16 16:36:00,92.4,51.5,29.71,West,262,1.0,14.0,25,0.00,,---,0.00,VWS V14.00,2013-06-16 23:36:00,
2013-06-16 16:41:00,92.3,51.4,29.72,West,277,11.0,14.0,25,0.00,,---,0.00,VWS V14.00,2013-06-16 23:41:00,
2013-06-16 16:46:00,91.8,52.1,29.71,WNW,289,2.0,14.0,26,0.00,,---,0.00,VWS V14.00,2013-06-16 23:46:00,
2013-06-16 16:51:00,92.1,51.3,29.72,WNW,291,9.0,15.0,25,0.00,,---,0.00,VWS V14.00,2013-06-16 23:51:00,
2013-06-16 16:56:00,92.3,51.4,29.72,WSW,255,1.0,16.0,25,0.00,,---,0.00,VWS V14.00,2013-06-16 23:56:00,
2013-06-16 17:00:00,92.3,51.4,29.71,WNW,297,9.0,16.0,25,0.00,,---,0.00,VWS V14.00,2013-06-17 00:00:00,
2013-06-16 17:01:00,92.3,50.3,29.71,WNW,295,6.0,16.0,24,0.00,,---,0.00,VWS V14.00,2013-06-17 00:01:00,
2013-06-16 17:06:00,92.2,50.2,29.71,NNW,329,5.0,14.0,24,0.00,,---,0.00,VWS V14.00,2013-06-17 00:06:00,
2013-06-16 17:11:00,92.2,51.3,29.70,WNW,283,4.0,14.0,25,0.00,,---,0.00,VWS V14.00,2013-06-17 00:11:00,
2013-06-16 17:16:00,92.2,49.1,29.70,West,277,8.0,17.0,23,0.00,,---,0.00,VWS V14.00,2013-06-17 00:16:00,
2013-06-16 17:21:00,92.0,50.1,29.70,West,264,4.0,17.0,24,0.00,,---,0.00,VWS V14.00,2013-06-17 00:21:00,
2013-06-16 17:26:00,91.8,49.9,29.70,WNW,296,4.0,17.0,24,0.00,,---,0.00,VWS V14.00,2013-06-17 00:26:00,
2013-06-16 17:30:00,91.5,48.5,29.70,WSW,250,6.0,17.0,23,0.00,,---,0.00,VWS V14.00,2013-06-17 00:30:00,
2013-06-16 17:31:00,91.6,48.6,29.70,WNW,288,0.0,17.0,23,0.00,,---,0.00,VWS V14.00,2013-06-17 00:31:00,
2013-06-16 17:36:00,91.6,49.7,29.70,WNW,295,3.0,12.0,24,0.00,,---,0.00,VWS V14.00,2013-06-17 00:36:00,
2013-06-16 17:41:00,91.4,49.6,29.70,West,276,9.0,14.0,24,0.00,,---,0.00,VWS V14.00,2013-06-17 00:41:00,
2013-06-16 17:46:00,91.3,48.3,29.70,WNW,301,2.0,14.0,23,0.00,,---,0.00,VWS V14.00,2013-06-17 00:46:00,
2013-06-16 17:51:00,91.2,48.3,29.70,NW,305,8.0,14.0,23,0.00,,---,0.00,VWS V14.00,2013-06-17 00:51:00,
2013-06-16 17:56:00,91.4,48.4,29.70,West,265,6.0,14.0,23,0.00,,---,0.00,VWS V14.00,2013-06-17 00:56:00,
2013-06-16 18:00:00,91.3,48.3,29.69,WNW,288,7.0,14.0,23,0.00,,---,0.00,VWS V14.00,2013-06-17 01:00:00,
2013-06-16 18:01:00,91.4,48.4,29.69,West,281,6.0,14.0,23,0.00,,---,0.00,VWS V14.00,2013-06-17 01:01:00,
2013-06-16 18:06:00,91.1,48.2,29.69,West,264,5.0,12.0,23,0.00,,---,0.00,VWS V14.00,2013-06-17 01:06:00,
2013-06-16 18:11:00,90.9,48.0,29.70,West,279,4.0,13.0,23,0.00,,---,0.00,VWS V14.00,2013-06-17 01:11:00,
2013-06-16 18:16:00,90.5,46.5,29.69,West,272,0.0,13.0,22,0.00,,---,0.00,VWS V14.00,2013-06-17 01:16:00,
2013-06-16 18:21:00,90.6,46.6,29.69,WSW,256,0.0,13.0,22,0.00,,---,0.00,VWS V14.00,2013-06-17 01:21:00,
2013-06-16 18:26:00,90.7,47.8,29.69,WSW,252,0.0,13.0,23,0.00,,---,0.00,VWS V14.00,2013-06-17 01:26:00,
2013-06-16 18:30:00,90.7,46.7,29.69,WNW,292,1.0,13.0,22,0.00,,---,0.00,VWS V14.00,2013-06-17 01:30:00,
2013-06-16 18:31:00,90.7,46.7,29.69,WNW,292,3.0,13.0,22,0.00,,---,0.00,VWS V14.00,2013-06-17 01:31:00,
2013-06-16 18:36:00,90.5,46.5,29.69,WSW,256,6.0,11.0,22,0.00,,---,0.00,VWS V14.00,2013-06-17 01:36:00,
2013-06-16 18:41:00,90.3,46.3,29.69,West,269,6.0,11.0,22,0.00,,---,0.00,VWS V14.00,2013-06-17 01:41:00,
2013-06-16 18:46:00,89.9,46.0,29.69,West,259,5.0,12.0,22,0.00,,---,0.00,VWS V14.00,2013-06-17 01:46:00,
2013-06-16 18:51:00,89.5,45.7,29.69,West,260,10.0,12.0,22,0.00,,---,0.00,VWS V14.00,2013-06-17 01:51:00,
2013-06-16 18:56:00,89.1,44.1,29.69,West,269,9.0,16.0,21,0.00,,---,0.00,VWS V14.00,2013-06-17 01:56:00,
2013-06-16 19:00:00,88.7,43.8,29.69,WSW,253,6.0,16.0,21,0.00,,---,0.00,VWS V14.00,2013-06-17 02:00:00,
2013-06-16 19:01:00,88.7,43.8,29.69,West,265,11.0,16.0,21,0.00,,---,0.00,VWS V14.00,2013-06-17 02:01:00,
2013-06-16 19:06:00,88.4,44.8,29.70,West,269,6.0,10.0,22,0.00,,---,0.00,VWS V14.00,2013-06-17 02:06:00,
2013-06-16 19:11:00,88.0,44.4,29.70,West,263,0.0,10.0,22,0.00,,---,0.00,VWS V14.00,2013-06-17 02:11:00,
2013-06-16 19:16:00,87.4,45.1,29.70,West,264,0.0,10.0,23,0.00,,---,0.00,VWS V14.00,2013-06-17 02:16:00,
2013-06-16 19:21:00,86.7,44.5,29.70,West,272,0.0,10.0,23,0.00,,---,0.00,VWS V14.00,2013-06-17 02:21:00,
2013-06-16 19:26:00,86.2,44.1,29.70,West,267,0.0,10.0,23,0.00,,---,0.00,VWS V14.00,2013-06-17 02:26:00,
2013-06-16 19:30:00,85.6,44.7,29.70,West,267,0.0,10.0,24,0.00,,---,0.00,VWS V14.00,2013-06-17 02:30:00,
2013-06-16 19:31:00,85.7,44.8,29.70,West,267,0.0,10.0,24,0.00,,---,0.00,VWS V14.00,2013-06-17 02:31:00,
2013-06-16 19:36:00,85.0,44.2,29.71,West,267,0.0,0.0,24,0.00,,---,0.00,VWS V14.00,2013-06-17 02:36:00,
2013-06-16 19:41:00,84.3,44.7,29.71,West,267,0.0,0.0,25,0.00,,---,0.00,VWS V14.00,2013-06-17 02:41:00,
2013-06-16 19:46:00,83.7,44.2,29.71,West,267,0.0,0.0,25,0.00,,---,0.00,VWS V14.00,2013-06-17 02:46:00,
2013-06-16 19:51:00,83.1,43.7,29.71,West,267,0.0,0.0,25,0.00,,---,0.00,VWS V14.00,2013-06-17 02:51:00,
2013-06-16 19:56:00,82.6,44.3,29.72,West,267,0.0,0.0,26,0.00,,---,0.00,VWS V14.00,2013-06-17 02:56:00,
2013-06-16 20:00:00,82.2,44.9,29.71,West,267,0.0,0.0,27,0.00,,---,0.00,VWS V14.00,2013-06-17 03:00:00,
2013-06-16 20:01:00,82.3,44.0,29.71,West,267,0.0,0.0,26,0.00,,---,0.00,VWS V14.00,2013-06-17 03:01:00,
2013-06-16 20:06:00,81.4,46.1,29.72,West,267,0.0,0.0,29,0.00,,---,0.00,VWS V14.00,2013-06-17 03:06:00,
2013-06-16 20:11:00,80.2,46.9,29.71,West,267,0.0,0.0,31,0.00,,---,0.00,VWS V14.00,2013-06-17 03:11:00,
2013-06-16 20:16:00,79.0,47.5,29.72,West,267,0.0,0.0,33,0.00,,---,0.00,VWS V14.00,2013-06-17 03:16:00,
2013-06-16 20:21:00,77.8,46.4,29.72,West,267,0.0,0.0,33,0.00,,---,0.00,VWS V14.00,2013-06-17 03:21:00,
2013-06-16 20:26:00,76.7,46.2,29.73,West,267,0.0,0.0,34,0.00,,---,0.00,VWS V14.00,2013-06-17 03:26:00,
2013-06-16 20:30:00,75.9,45.5,29.73,West,267,0.0,0.0,34,0.00,,---,0.00,VWS V14.00,2013-06-17 03:30:00,
2013-06-16 20:31:00,75.9,45.5,29.73,West,267,0.0,0.0,34,0.00,,---,0.00,VWS V14.00,2013-06-17 03:31:00,
2013-06-16 20:36:00,75.3,45.8,29.73,West,267,0.0,0.0,35,0.00,,---,0.00,VWS V14.00,2013-06-17 03:36:00,
2013-06-16 20:41:00,74.7,45.3,29.73,West,267,0.0,0.0,35,0.00,,---,0.00,VWS V14.00,2013-06-17 03:41:00,
2013-06-16 20:47:00,74.5,45.8,29.73,West,267,0.0,0.0,36,0.00,,---,0.00,VWS V14.00,2013-06-17 03:47:00,
2013-06-16 20:52:00,74.2,45.6,29.73,West,267,0.0,0.0,36,0.00,,---,0.00,VWS V14.00,2013-06-17 03:52:00,
2013-06-16 20:57:00,73.9,45.3,29.73,West,267,0.0,0.0,36,0.00,,---,0.00,VWS V14.00,2013-06-17 03:57:00,
2013-06-16 21:00:00,73.7,44.4,29.73,West,267,0.0,0.0,35,0.00,,---,0.00,VWS V14.00,2013-06-17 04:00:00,
2013-06-16 21:01:00,73.8,45.2,29.73,West,267,0.0,0.0,36,0.00,,---,0.00,VWS V14.00,2013-06-17 04:01:00,
2013-06-16 21:07:00,73.4,44.1,29.74,West,267,0.0,0.0,35,0.00,,---,0.00,VWS V14.00,2013-06-17 04:07:00,
2013-06-16 21:12:00,72.9,45.1,29.74,West,267,0.0,0.0,37,0.00,,---,0.00,VWS V14.00,2013-06-17 04:12:00,
2013-06-16 21:17:00,72.0,45.0,29.74,West,267,0.0,0.0,38,0.00,,---,0.00,VWS V14.00,2013-06-17 04:17:00,
2013-06-16 21:22:00,71.4,43.8,29.74,West,267,0.0,0.0,37,0.00,,---,0.00,VWS V14.00,2013-06-17 04:22:00,
2013-06-16 21:27:00,71.2,42.9,29.74,West,267,0.0,0.0,36,0.00,,---,0.00,VWS V14.00,2013-06-17 04:27:00,
2013-06-16 21:30:00,71.3,41.5,29.75,West,267,0.0,0.0,34,0.00,,---,0.00,VWS V14.00,2013-06-17 04:30:00,
2013-06-16 21:32:00,71.4,41.6,29.75,West,267,0.0,0.0,34,0.00,,---,0.00,VWS V14.00,2013-06-17 04:32:00,
2013-06-16 21:37:00,72.2,40.7,29.75,West,267,0.0,0.0,32,0.00,,---,0.00,VWS V14.00,2013-06-17 04:37:00,
2013-06-16 21:42:00,72.8,40.4,29.75,West,267,0.0,0.0,31,0.00,,---,0.00,VWS V14.00,2013-06-17 04:42:00,
2013-06-16 21:47:00,73.0,41.4,29.75,West,267,0.0,0.0,32,0.00,,---,0.00,VWS V14.00,2013-06-17 04:47:00,
2013-06-16 21:52:00,72.5,40.2,29.75,West,267,0.0,0.0,31,0.00,,---,0.00,VWS V14.00,2013-06-17 04:52:00,
2013-06-16 21:57:00,72.1,39.8,29.75,West,267,0.0,0.0,31,0.00,,---,0.00,VWS V14.00,2013-06-17 04:57:00,
2013-06-16 22:00:00,71.9,39.7,29.75,West,267,0.0,0.0,31,0.00,,---,0.00,VWS V14.00,2013-06-17 05:00:00,
2013-06-16 22:02:00,71.9,39.7,29.75,West,267,0.0,0.0,31,0.00,,---,0.00,VWS V14.00,2013-06-17 05:02:00,
2013-06-16 22:07:00,71.5,38.5,29.76,West,267,0.0,0.0,30,0.00,,---,0.00,VWS V14.00,2013-06-17 05:07:00,
2013-06-16 22:12:00,71.2,41.4,29.76,West,267,0.0,0.0,34,0.00,,---,0.00,VWS V14.00,2013-06-17 05:12:00,
2013-06-16 22:17:00,70.9,41.2,29.76,West,267,0.0,0.0,34,0.00,,---,0.00,VWS V14.00,2013-06-17 05:17:00,
2013-06-16 22:22:00,70.5,40.8,29.76,West,267,0.0,0.0,34,0.00,,---,0.00,VWS V14.00,2013-06-17 05:22:00,
2013-06-16 22:30:00,70.9,43.4,29.76,North,0,0.0,0.0,37,0.00,,---,0.00,VWS V14.00,2013-06-17 05:30:00,
2013-06-16 23:00:00,67.6,38.3,29.76,North,0,0.0,0.0,34,0.00,,---,0.00,VWS V14.00,2013-06-17 06:00:00,
2013-06-16 23:30:00,68.8,38.5,29.76,North,0,0.0,0.0,33,0.00,,---,0.00,VWS V14.00,2013-06-17 06:30:00,